Location: Atherton
(17.2661°S, 145.4859°E)
Time: 19:12:12
(UTC+10:00)

Hubble Space Telescope - Pass Details

Date: 12 February 2026
Orbit: 476 x 479 km, 28.5° (Epoch: 9 March)

Event Time Altitude Azimuth Distance (km) Brightness Sun altitude
Rises 19:32:08 0° 288° (WNW) 2,509 5.2 -9.8°
Reaches altitude 10° 19:34:21 10° 285° (WNW) 1,635 4.2 -10.3°
Maximum altitude 19:38:04 64° 203° (SSW) 528 0.9 -11.1°
Drops below altitude 10° 19:41:49 10° 120° (ESE) 1,644 2.9 -12.0°
Enters shadow 19:42:06 - 120° (ESE) 1,753 3.0 -12.0°
